KF4KUL Weather Reports


time (UTC)temp
C
wind
direction
speed
KPH
gust
KPH
rain 1hr
cm
rain 24hr
cm
rain mn
cm
humidity
%
barometer
mb
20260510192919 32 276 9.7 12.9 0.00 0.00 0.00 63 1015.6
20260510191418 32 316 9.7 12.9 0.00 0.00 0.00 63 1015.7
20260510185917 31 277 9.7 12.9 0.00 0.00 0.00 63 1015.6
20260510184416 31 278 9.7 11.3 0.00 0.00 0.00 62 1015.7
20260510182915 31 271 8.0 16.1 0.00 0.00 0.00 65 1015.8
20260510181414 31 307 8.0 9.7 0.00 0.00 0.00 64 1015.9
20260510175913 32 292 8.0 14.5 0.00 0.00 0.00 64 1016.0
20260510174412 32 314 9.7 12.9 0.00 0.00 0.00 65 1016.1
20260510172911 32 257 8.0 14.5 0.00 0.00 0.00 63 1016.1
20260510171410 33 338 1.6 9.7 0.00 0.00 0.00 63 1016.2
20260510165909 32 295 9.7 14.5 0.00 0.00 0.00 64 1016.3
20260510162521 32 273 4.8 11.3 0.00 0.08 0.00 62 1016.1
20260510161020 32 312 6.4 12.9 0.00 0.08 0.00 62 1016.3
20260510155519 32 280 4.8 9.7 0.00 0.08 0.00 64 1016.2
20260510154018 31 288 4.8 8.0 0.00 0.08 0.00 63 1016.3
20260510152517 31 256 0.0 0.0 0.00 0.08 0.00 63 1016.1
20260510151022 30 228 6.4 6.4 0.00 0.08 0.00 64 1016.2
20260510145513 31 225 0.0 9.7 0.00 0.08 0.00 66 1016.1
20260510144012 30 212 8.0 12.9 0.00 0.08 0.00 66 1016.1
20260510142511 30 202 1.6 14.5 0.00 0.08 0.00 69 1016.2
20260510141011 29 210 1.6 9.7 0.00 0.08 0.00 72 1016.2
20260510135508 28 266 3.2 8.0 0.00 0.08 0.00 74 1016.0
20260510134007 27 257 4.8 8.0 0.00 0.08 0.00 77 1015.9
20260510132506 27 180 3.2 9.7 0.00 0.08 0.00 78 1015.9
20260510131006 26 190 3.2 12.9 0.00 0.08 0.00 81 1015.9
20260510125503 26 214 0.0 0.0 0.00 0.08 0.00 84 1015.7
20260510124002 25 207 1.6 9.7 0.00 0.08 0.00 86 1015.6
20260510122501 24 186 0.0 11.3 0.00 0.08 0.00 89 1015.6
20260510121001 23 222 0.0 0.0 0.00 0.08 0.00 90 1015.3
20260510115458 23 287 0.0 0.0 0.00 0.08 0.00 91 1015.1
20260510113957 22 287 0.0 0.0 0.00 0.08 0.00 91 1014.8
20260510112456 22 287 0.0 0.0 0.00 0.08 0.00 91 1014.7
20260510110956 22 287 0.0 0.0 0.00 0.08 0.00 91 1014.4
20260510105453 22 287 0.0 0.0 0.00 0.08 0.00 91 1014.2
20260510103952 22 287 0.0 0.0 0.00 0.08 0.00 91 1014.1
20260510102451 22 287 0.0 0.0 0.00 0.08 0.00 91 1014.0
20260510100951 22 287 0.0 0.0 0.00 0.08 0.00 91 1013.7
20260510095448 22 287 0.0 0.0 0.00 0.08 0.00 91 1013.5
20260510093947 22 287 0.0 0.0 0.00 0.08 0.00 90 1013.4
20260510092446 22 287 0.0 0.0 0.00 0.08 0.00 90 1013.3
20260510090946 23 287 0.0 0.0 0.00 0.08 0.00 90 1013.1
20260510085443 23 287 0.0 0.0 0.00 0.08 0.00 90 1012.9
20260510083942 23 287 0.0 0.0 0.00 0.08 0.00 90 1012.7
20260510082441 23 287 0.0 0.0 0.00 0.08 0.00 90 1012.6
20260510080941 23 287 0.0 0.0 0.00 0.08 0.00 90 1012.9
20260510075438 23 287 0.0 0.0 0.00 0.08 0.00 90 1012.7
20260510073937 23 287 0.0 0.0 0.00 0.08 0.00 89 1012.9
20260510072436 24 287 0.0 0.0 0.00 0.08 0.00 89 1012.9
20260510070936 23 287 0.0 0.0 0.00 0.08 0.00 90 1013.0
20260510065433 23 287 0.0 0.0 0.00 0.08 0.00 90 1013.3
20260510063932 24 287 0.0 0.0 0.00 0.08 0.00 90 1013.6
20260510062431 24 287 0.0 0.0 0.00 0.08 0.00 90 1013.6
20260510060931 24 287 0.0 0.0 0.00 0.08 0.00 90 1013.8
20260510055428 24 287 0.0 0.0 0.00 0.08 0.00 90 1013.9
20260510053927 24 287 0.0 0.0 0.00 0.08 0.00 90 1014.2
20260510052426 24 287 0.0 0.0 0.00 0.08 0.00 90 1014.2
20260510050926 24 287 0.0 0.0 0.00 0.08 0.00 90 1014.5
20260510045423 24 287 0.0 0.0 0.00 0.08 0.00 90 1014.5
20260510043922 24 287 0.0 0.0 0.00 0.08 0.00 90 1014.5
20260510042421 24 287 0.0 0.0 0.00 0.08 0.00 90 1014.6
20260510040921 25 287 0.0 0.0 0.00 0.08 0.00 90 1014.7
20260510035418 24 287 0.0 0.0 0.00 0.08 0.08 89 1014.8
20260510033917 25 287 0.0 0.0 0.00 0.08 0.08 89 1014.6
20260510032416 25 287 0.0 0.0 0.00 0.08 0.08 88 1014.5
20260510030916 25 287 0.0 0.0 0.05 0.08 0.08 88 1014.3
20260510025413 25 287 0.0 0.0 0.05 0.08 0.08 87 1014.3
20260510023912 25 287 0.0 0.0 0.05 0.08 0.08 87 1014.1
20260510022411 25 287 0.0 0.0 0.05 0.08 0.08 86 1014.0
20260510020911 25 287 0.0 0.0 0.00 0.03 0.03 85 1014.3
20260510015408 25 287 0.0 0.0 0.00 0.03 0.03 84 1014.1
20260510013907 25 287 0.0 0.0 0.00 0.03 0.03 83 1013.9
20260510012406 26 287 0.0 0.0 0.00 0.03 0.03 83 1013.6
20260510010906 26 287 0.0 0.0 0.00 0.03 0.03 82 1013.6
20260510005403 26 287 0.0 0.0 0.00 0.03 0.03 82 1013.3
20260510003902 26 287 0.0 0.0 0.03 0.03 0.03 80 1013.3
20260510002401 26 287 0.0 0.0 0.03 0.03 0.03 78 1013.2
20260510000901 27 287 0.0 0.0 0.03 0.03 0.03 76 1013.0
20260509235358 27 287 0.0 0.0 0.03 0.03 0.03 75 1012.9
20260509233857 27 287 0.0 0.0 0.00 0.00 0.00 70 1012.8
20260509232356 28 249 4.8 8.0 0.00 0.00 0.00 69 1012.7
20260509230856 28 269 0.0 0.0 0.00 0.00 0.00 67 1012.5
20260509225353 28 260 1.6 8.0 0.00 0.00 0.00 65 1012.3
20260509223852 29 314 6.4 9.7 0.00 0.00 0.00 64 1012.2
20260509222351 29 249 3.2 9.7 0.00 0.00 0.00 61 1012.1
20260509220851 30 285 0.0 0.0 0.00 0.00 0.00 58 1012.1
20260509215348 31 235 8.0 11.3 0.00 0.00 0.00 57 1011.9
20260509213847 31 259 0.0 0.0 0.00 0.00 0.00 55 1011.9
20260509212346 31 260 8.0 9.7 0.00 0.00 0.00 52 1011.8
20260509210846 32 276 8.0 12.9 0.00 0.00 0.00 47 1011.6
20260509205343 33 308 9.7 9.7 0.00 0.00 0.00 46 1011.5
20260509203842 33 256 6.4 12.9 0.00 0.00 0.00 43 1011.4
20260509202341 33 284 3.2 9.7 0.00 0.00 0.00 45 1011.3
20260509200841 34 277 9.7 11.3 0.00 0.00 0.00 45 1011.6
20260509195338 33 262 6.4 9.7 0.00 0.00 0.00 49 1011.7